Change the Weather History Date:

Friday, February 22, 2013

  Actual Average Record
Temperature  
Mean Temperature 30 °F -  
Max Temperature 39 °F 39 °F 71 °F (1997)
Min Temperature 21 °F 21 °F -9 °F (1968)
Degree Days  
Heating Degree Days 35    
Cooling Degree Days 0    
Moisture  
Dew Point 17 °F    
Average Humidity 58    
Maximum Humidity 78    
Minimum Humidity 36    
Precipitation  
Precipitation 0.00 in 0.11 in 1.63 in (1996)
Month to date precipitation 2.10  
Year to date precipitation 5.12  
Snow  
Snow 0.00 in - - ()
Month to date snowfall  
Since 1 July snowfall  
Snow Depth 2.00 in    
Sea Level Pressure  
Sea Level Pressure 30.37 in    
Wind  
Wind Speed 7 mph (North)    
Max Wind Speed 12 mph    
Max Gust Speed -    
Visibility 10 miles    
Events      
T = Trace of Precipitation, MM = Missing Value Source: NWS Daily Summary

Daily Weather History Graph

Daily Weather History Graph

Search for Another Location

Airport or City:

Trip Planner

Search our weather history database for the weather conditions in past years. The results will help you decide how hot, cold, wet, or windy it might be!

Date:

Astronomy

Feb. 22, 2013 Rise Set
Actual Time 6:32 AM EST 5:26 PM EST
Civil Twilight 6:03 AM EST 5:55 PM EST
Nautical Twilight 5:30 AM EST 6:28 PM EST
Astronomical Twilight 4:58 AM EST 7:01 PM EST
Moon 2:32 PM EST (2/22) 4:18 AM EST (2/22)
Length of Visible Light 11h 51m
Length of Day
10h 54m
Waxing Gibbous, 90% of the Moon is Illuminated
Feb 22
Waxing Gibbous
Feb 25
Full
Mar 4
Last Quarter
Mar 11
New
Mar 19
First Quarter

Hourly Weather History & Observations

Time (EST) Temp. Windchill Dew Point Humidity Pressure Visibility Wind Dir Wind Speed Gust Speed Precip Events Conditions
12:53 AM 24.8 °F 14.0 °F 15.8 °F 69% 30.24 in 10.0 mi NNW 11.5 mph - N/A   Clear
1:53 AM 24.1 °F 13.1 °F 16.0 °F 71% 30.30 in 10.0 mi NNW 11.5 mph - N/A   Clear
2:53 AM 24.1 °F 15.2 °F 16.0 °F 71% 30.31 in 10.0 mi NW 8.1 mph - N/A   Clear
3:53 AM 24.1 °F 17.0 °F 16.0 °F 71% 30.32 in 10.0 mi NNW 5.8 mph - N/A   Clear
4:53 AM 21.9 °F 17.2 °F 16.0 °F 78% 30.33 in 10.0 mi North 3.5 mph - N/A   Clear
5:53 AM 23.0 °F - 16.0 °F 74% 30.37 in 10.0 mi Calm Calm - N/A   Clear
6:53 AM 21.9 °F 15.7 °F 16.0 °F 78% 30.41 in 10.0 mi North 4.6 mph - N/A   Clear
7:53 AM 26.1 °F 19.4 °F 17.1 °F 69% 30.44 in 10.0 mi North 5.8 mph - N/A   Clear
8:53 AM 30.0 °F 24.1 °F 18.0 °F 61% 30.43 in 10.0 mi North 5.8 mph - N/A   Clear
9:53 AM 33.1 °F 26.9 °F 18.0 °F 54% 30.42 in 10.0 mi NNW 6.9 mph - N/A   Clear
10:53 AM 35.1 °F 28.6 °F 18.0 °F 50% 30.42 in 10.0 mi NW 8.1 mph - N/A   Clear
11:53 AM 37.9 °F 33.5 °F 15.1 °F 39% 30.39 in 10.0 mi North 5.8 mph - N/A   Clear
12:53 PM 37.9 °F - 15.1 °F 39% 30.38 in 10.0 mi Calm Calm - N/A   Clear
1:53 PM 39.0 °F - 15.1 °F 38% 30.37 in 10.0 mi Calm Calm - N/A   Clear
2:53 PM 39.0 °F - 14.0 °F 36% 30.37 in 10.0 mi Calm Calm - N/A   Clear
3:53 PM 39.0 °F 35.7 °F 15.1 °F 38% 30.37 in 10.0 mi SSE 4.6 mph - N/A   Clear
4:53 PM 37.9 °F 33.5 °F 16.0 °F 41% 30.35 in 10.0 mi SE 5.8 mph - N/A   Clear
5:53 PM 36.0 °F 32.1 °F 17.1 °F 46% 30.35 in 10.0 mi ESE 4.6 mph - N/A   Clear
6:53 PM 34.0 °F 26.6 °F 19.9 °F 56% 30.37 in 10.0 mi SE 9.2 mph - N/A   Clear
7:53 PM 34.0 °F 27.2 °F 19.9 °F 56% 30.38 in 10.0 mi SE 8.1 mph - N/A   Clear
8:53 PM 33.1 °F 27.7 °F 21.0 °F 61% 30.38 in 10.0 mi SE 5.8 mph - N/A   Partly Cloudy
9:53 PM 33.1 °F - 21.0 °F 61% 30.38 in 10.0 mi Calm Calm - N/A   Mostly Cloudy
10:53 PM 32.0 °F 27.5 °F 21.9 °F 66% 30.38 in 10.0 mi South 4.6 mph - N/A   Overcast
11:53 PM 32.0 °F - 21.9 °F 66% 30.37 in 10.0 mi Calm Calm - N/A   Overcast